Погода в Нивах

Россия / Калининградская область     54°46′49″N   20°05′30″E
темп.,
°C
ветер,
м/с
пор.,
м/с
влажн.,
%
обл.,
%
осадки,
мм/ч
давл.,
гПа
погр.,
м
23 апреля, пт
пт2323:00+4зсз81078100 0.4 10121053
02:00+3сз9138299 0.7 10131156
05:00+4з71281100 0.4 1013857
08:00+5сз811765 1.4 10141092
11:00+5сз911625 0.0 10161372
14:00+5сз911585 0.1 10181477
17:00+5зсз8125836 0.0 10191664
20:00+4сз710666 0.0 1019685
24 апреля, сб
сб2423:00+3сз597031 0.0 1020468
02:00+3зсз597069 0.1 1020321
05:00+3зсз587083 0.1 1019254
08:00+5сз696564 0.4 1019694
11:00+6сз795992 0.1 10201245
14:00+6сз795976 0.1 10201249
17:00+4сз710550 0.0 10201256
20:00+3сз7106198 0.0 1020866
25 апреля, вс
вс2523:00+2ссз58655 0.1 1020553
02:00+3сз586497 0.1 1020511
05:00+4сз5862100 0.1 1019536
08:00+5ссз4661100 0.6 1019807
11:00+6сз565029 0.3 10191449
14:00+6сз785749 0.5 10191464
17:00+4ссз796328 0.2 10201160
20:00+3сз7106599 0.2 1019857
26 апреля, пн
пн2623:00+3сз7970100 0.2 1019870
02:00+2сз586616 0.2 1018463
05:00+3зсз686498 0.0 1017542
08:00+5зсз7964100 0.3 10161154
11:00+6зсз71057100 0.2 10161617
14:00+6сз81161100 0.3 10161612
17:00+4сз91167100 0.0 10151257
20:00+3сз91288100 0.2 1015898
27 апреля, вт
вт2723:00+3сз71096100 0.2 1015696
02:00+4ссз6988100 0.3 1015656
05:00+4сз6788100 0.1 1014615
08:00+5ссз5783100 0.3 1015673
11:00+6сз567118 0.0 1015935
14:00+6сз45676 0.0 1015894
17:00+6ссз44705 0.0 1015656
20:00+3ссв33855 0.0 1015137